Regional Weather Roundup
Issued by NWS Upton, NY

Current Version | Previous Version | Text Only | Print | Product List | Glossary On
Versions: 1 2 3 4 5 6 7 8 9 10 11 12 13 14 15 16 17 18 19 20 21 22 23 24 25 26 27 28 29 30 31 32 33 34 35 36 37 38 39 40 41 42 43 44 45 46 47 48 49 50
000
ASUS41 KOKX 260109
RWROKX

REGIONAL WEATHER ROUNDUP
NATIONAL WEATHER SERVICE NEW YORK NY
900 PM EDT TUE JUL 25 2017

NOTE: "FAIR" INDICATES FEW OR NO CLOUDS BELOW 12,000 FEET WITH NO
SIGNIFICANT WEATHER AND/OR OBSTRUCTIONS TO VISIBILITY.

NYZ071-072-176-178-NJZ106-104-260200-
NEW YORK CITY METRO AREA

CITY           SKY/WX    TMP DP  RH WIND       PRES   REMARKS
Central Park   CLOUDY    68  59  73 VRB5      30.22R
Bronx Bot Gard   N/A     64  57  77 NE1       30.21R
LaGuardia APRT MOCLDY    69  61  75 NE10      30.18R
Kennedy INTL   MOCLDY    68  60  75 NE9       30.19R
Breezy Point     N/A     66 N/A N/A NE8         N/A
Newark/Liberty CLOUDY    69  60  73 NE8       30.18R
Teterboro      CLOUDY    68  59  73 NE5       30.18R
$$

NYZ177-179-078>081-260200-
LONG ISLAND NEW YORK

CITY           SKY/WX    TMP DP  RH WIND       PRES   REMARKS
Jones Beach      N/A     66 N/A N/A NE8         N/A
Matinecock PT    N/A     66 N/A N/A NE9         N/A
Farmingdale    MOCLDY    65  59  81 NE5       30.19R
MacArthur/ISP  CLOUDY    67  59  75 NE7       30.19R
Shirley        CLOUDY    66  61  84 CALM      30.19R
Mt Sinai Harb    N/A    N/A N/A N/A MISG        N/A
Westhampton    CLOUDY    64  58  80 E3        30.21R
East Hampton   CLOUDY    63  58  83 NE5       30.19R
Montauk          N/A     65  58  78 NE7       30.21R
$$

NYZ052-065-067-260200-
HUDSON VALLEY

CITY           SKY/WX    TMP DP  RH WIND       PRES   REMARKS
White Plains   MOCLDY    65  58  78 CALM      30.20R
Larchmont Harb   N/A     66 N/A N/A N7          N/A
Croton O-T Hud   N/A     64 N/A N/A MISG        N/A
Newburgh       CLOUDY    64  61  88 NE6       30.21S
Montgomery     CLOUDY    65  61  87 NE5       30.20R
Poughkeepsie   CLOUDY    65  59  81 CALM      30.19R
Albany         CLOUDY    64  59  83 CALM      30.22R
$$

NJZ001-105-106-008-010-013-015-019>022-104-260200-
NEW JERSEY

CITY           SKY/WX    TMP DP  RH WIND       PRES   REMARKS
Newark/Liberty CLOUDY    69  60  73 NE8       30.18R
Teterboro      CLOUDY    68  59  73 NE5       30.18R
Caldwell       CLOUDY    67  61  81 E6        30.20R
Somerville     LGT RAIN  67  67 100 CALM      30.17R FOG
Linden         CLOUDY    69  61  76 CALM      30.18R
Perth Amboy      N/A     68 N/A N/A E7          N/A
Sussex         CLOUDY    64  63  96 N5        30.20R
Andover          N/A     65  63  93 CALM      30.20R
Trenton        LGT RAIN  67  65  93 E5        30.18R FOG
Millville      CLOUDY    69  68  96 E7        30.15S
Atlantic City  CLOUDY    69  65  86 E6        30.16R
Wrightstown    CLOUDY    66  64  94 E6        30.16
Toms River     CLOUDY    68  63  84 NE5       30.19R
Belmar         CLOUDY    67  61  81 E6        30.19R
$$

PAZ047>061-062-071-260200-
EASTERN PENNSYLVANIA

CITY           SKY/WX    TMP DP  RH WIND       PRES   REMARKS
Philadelphia   CLOUDY    73  63  70 NE8       30.16R
Allentown      CLOUDY    70  60  70 E9        30.18R
Scranton       CLOUDY    67  60  78 N7        30.20R
$$

CTZ002-004>006-009-010-012-RIZ004-006-007-MAZ004-011-015-260200-
SOUTHERN NEW ENGLAND
 IN CT

CITY           SKY/WX    TMP DP  RH WIND       PRES   REMARKS
Bradley INTL   MOCLDY    64  59  83 N3        30.21R
Hartford       CLOUDY    66  58  75 NE6       30.20R
Danbury        CLOUDY    64  57  78 NE3       30.22R
Wtrbury/Oxford CLOUDY    63  54  72 NE3       30.22R
Bridgeport     CLOUDY    67  57  70 NE9       30.20R
Meriden        CLOUDY    65  57  75 CALM      30.21R
New Haven      CLOUDY    66  57  72 NE5       30.20R
Chester        CLOUDY    63  57  82 NE3       30.21R
Groton         PTCLDY    63  56  78 N6        30.19R
Wilimantic     PTCLDY    64  59  83 CALM      30.21R

 IN RI

CITY           SKY/WX    TMP DP  RH WIND       PRES   REMARKS
Providence     PTCLDY    62  58  86 N5        30.20R
Block Island   CLEAR     61  57  87 N6        30.20R
Westerly       PTCLDY    62  58  86 N3        30.20R
 IN MA

CITY           SKY/WX    TMP DP  RH WIND       PRES   REMARKS
Boston         PTCLDY    62  52  69 E3        30.20R
Worcester      CLEAR     57  54  89 CALM      30.21R
Westfield      CLOUDY    62  61  96 CALM      30.21R
Provincetown   CLEAR     58  56  93 N7        30.19R
Nantucket      MOCLDY    61  56  83 N15       30.16R
$$

ANZ330-335-338-340-345-350-353-355-260200-
COASTAL MARINE OBSERVATIONS


STATION/POSITION TIME  SKY/WX   TEMP    WIND        PRES    VSBY  WAVE
                                AIR SEA DIR/SP/G                  HT/PER
                 (UTC)          (F)     (DEG/KT/KT) (MB)    (MI)  (FT/S)
NY HARB ENTRANCE 2350            68 70   60/ 10/ 12 1021.0          3/ 7
20 S FIRE ISLAND 0050            67 73   60/ 12/ 16 1021.2          3/ 5
GREAT SOUTH BAY  0030            68 76   70/  8/ 10   N/A
23 SSW MONTAUK P 2350            64 72              1021.9          3/ 8
15 E BARNEGAT LI 0030               70                N/A           4/ 6
HUDSON CANYON    2350            67 74   60/ 14/ 16 1020.2          3/ 6
KINGS POINT      0030            67 72  110/  3/  4 1022.0
EXECUTION ROCKS  0045            68      80/  6/ 10   N/A
CENTRAL LI SOUND 0000            67      40/ 10/ 12   N/A           0
EASTERN LI SOUND NOT AVBL
ROBBINS REEF     0030                    60/ 11/ 12 1022.3
$$


>>>>>>>>>>>>>>>>>>>>>>>>>>>> KEY <<<<<<<<<<<<<<<<<<<<<<<<<<<
>                                                          <
>     SKY/WX - Sky Condition/Present Weather               <
>     TMP    - Temperature in Fahrenheit                   <
>     DP     - Dew Point in Fahrenheit                     <
>     RH     - Relative Humidity in Percent                <
>     WIND   - Direction (from) and Speed in MPH           <
>     PRES   - Mean Sea Level Pressure (inches of Hg)      <
>     WCI    - Wind Chill Index                            <
>     VSB    - VISIBILITY IN MILES                         <
>     HX     - HEAT INDEX                                  <
>     TC     - TEMPERATURE IN CELSIUS                      <
>     VRB    - VARIABLE WIND DIRECTION                     <
>                                                          <
>>>>>>>>>>>>>>>>>>>>>>>>>>>> KEY <<<<<<<<<<<<<<<<<<<<<<<<<<<



USA.gov is the U.S. government's official web portal to all federal, state and local government web resources and services.